Weather History for KCMH - October, 2013

Change the Weather History Date:

Tuesday, October 15, 2013

  Actual Average Record
Temperature  
Mean Temperature 60 °F 55 °F  
Max Temperature 71 °F 65 °F 90 °F (1897)
Min Temperature 49 °F 45 °F 30 °F (1894)
Degree Days  
Heating Degree Days 5 10  
Month to date heating degree days 40 122  
Since 1 July heating degree days 93 191  
Cooling Degree Days 0 0  
Month to date cooling degree days 42 13  
Year to date cooling degree days 1179 1024  
Growing Degree Days 10 (Base 50)    
Moisture  
Dew Point 55 °F    
Average Humidity 83    
Maximum Humidity 93    
Minimum Humidity 73    
Precipitation  
Precipitation 0.01 in 0.08 in 1.18 in (1914)
Month to date precipitation 3.81 1.29  
Year to date precipitation 32.97 31.82  
Snow  
Snow 0.00 in 0.00 in - ()
Month to date snowfall 0.0 0.0  
Since 1 July snowfall 0.0 0.0  
Since 1 September snowfall 0.0 0.0  
Snow Depth 0.00 in    
Sea Level Pressure  
Sea Level Pressure 30.07 in    
Wind  
Wind Speed 5 mph (SE)    
Max Wind Speed 10 mph    
Max Gust Speed 15 mph    
Visibility 7 miles    
Events Rain    
T = Trace of Precipitation, MM = Missing Value Source: NWS Daily Summary

Daily Weather History Graph

Daily Weather History Graph

Search for Another Location

Airport or City:

Trip Planner

Search our weather history database for the weather conditions in past years. The results will help you decide how hot, cold, wet, or windy it might be!

Date:

Astronomy

Oct. 15, 2013 Rise Set
Actual Time 7:42 AM EDT 6:51 PM EDT
Civil Twilight 7:14 AM EDT 7:18 PM EDT
Nautical Twilight 6:43 AM EDT 7:50 PM EDT
Astronomical Twilight 6:12 AM EDT 8:21 PM EDT
Moon 4:56 PM EDT (10/15) 4:03 AM EDT (10/15)
Length of Visible Light 12h 03m
Length of Day
11h 09m
Waxing Gibbous, 87% of the Moon is Illuminated
Oct 15
Waxing Gibbous
Oct 18
Full
Oct 26
Last Quarter
Nov 3
New
Nov 10
First Quarter

Hourly Weather History & Observations

Time (EDT) Temp. Dew Point Humidity Pressure Visibility Wind Dir Wind Speed Gust Speed Precip Events Conditions
12:51 AM 54.0 °F 46.9 °F 77% 30.21 in 10.0 mi ENE 3.5 mph - N/A   Partly Cloudy
1:51 AM 53.1 °F 46.9 °F 80% 30.19 in 10.0 mi ENE 3.5 mph - N/A   Clear
2:51 AM 52.0 °F 46.9 °F 83% 30.17 in 10.0 mi Calm Calm - N/A   Clear
3:51 AM 51.1 °F 46.9 °F 86% 30.16 in 10.0 mi Calm Calm - N/A   Clear
4:51 AM 50.0 °F 46.0 °F 86% 30.15 in 10.0 mi ENE 4.6 mph - N/A   Clear
5:51 AM 51.1 °F 46.9 °F 86% 30.14 in 10.0 mi Calm Calm - N/A   Partly Cloudy
6:51 AM 52.0 °F 48.9 °F 89% 30.14 in 6.0 mi East 3.5 mph - N/A   Scattered Clouds
7:51 AM 53.1 °F 48.9 °F 86% 30.12 in 4.0 mi Calm Calm - N/A   Mostly Cloudy
8:51 AM 55.9 °F 53.1 °F 90% 30.12 in 4.0 mi SE 3.5 mph - N/A   Overcast
9:51 AM 59.0 °F 55.0 °F 87% 30.12 in 4.0 mi SE 6.9 mph - N/A   Overcast
10:00 AM 59.0 °F 55.4 °F 88% 30.12 in 2.5 mi SE 9.2 mph - N/A   Overcast
10:14 AM 59.0 °F 55.4 °F 88% 30.12 in 3.0 mi SE 9.2 mph - N/A   Overcast
10:51 AM 59.0 °F 55.9 °F 90% 30.11 in 5.0 mi SE 5.8 mph - N/A   Overcast
11:22 AM 60.8 °F 55.4 °F 82% 30.11 in 1.0 mi SE 8.1 mph - N/A   Overcast
11:51 AM 60.1 °F 57.0 °F 90% 30.09 in 1.0 mi SSE 6.9 mph - N/A   Overcast
12:51 PM 63.0 °F 57.9 °F 84% 30.09 in 1.0 mi Calm Calm - N/A   Haze
1:07 PM 62.6 °F 57.2 °F 82% 30.09 in 6.0 mi Calm Calm - N/A   Haze
1:43 PM 64.4 °F 59.0 °F 83% 30.07 in 7.0 mi SSW 3.5 mph - N/A   Mostly Cloudy
1:51 PM 64.9 °F 59.0 °F 81% 30.05 in 7.0 mi ESE 4.6 mph - N/A   Mostly Cloudy
2:51 PM 66.9 °F 59.0 °F 76% 30.04 in 10.0 mi SSW 5.8 mph - N/A   Overcast
3:11 PM 68.0 °F 59.0 °F 73% 30.03 in 10.0 mi South 8.1 mph - N/A   Overcast
3:51 PM 68.0 °F 59.0 °F 73% 30.01 in 10.0 mi SSE 5.8 mph - N/A   Overcast
4:51 PM 69.1 °F 60.1 °F 73% 30.00 in 10.0 mi SSE 5.8 mph - N/A   Overcast
5:51 PM 70.0 °F 60.1 °F 71% 29.99 in 10.0 mi South 6.9 mph - N/A   Overcast
6:51 PM 69.1 °F 60.1 °F 73% 29.96 in 10.0 mi SE 8.1 mph - N/A   Overcast
7:51 PM 68.0 °F 60.1 °F 76% 29.96 in 10.0 mi SSE 6.9 mph - N/A   Overcast
8:51 PM 68.0 °F 60.1 °F 76% 29.96 in 10.0 mi South 6.9 mph - N/A   Overcast
9:51 PM 66.9 °F 60.1 °F 79% 29.96 in 10.0 mi South 4.6 mph - N/A   Overcast
10:51 PM 66.9 °F 61.0 °F 81% 29.96 in 10.0 mi South 5.8 mph - N/A   Overcast
11:51 PM 66.0 °F 62.1 °F 87% 29.96 in 10.0 mi South 9.2 mph - 0.01 in Rain Light Rain